OBJECT AH, 63241

Orbit data source: Space-Track

You're viewing an Uncataloged Satellite

Recently launched and/or uncataloged satellites may have evolving metadata. Metadata may include but not limited to: Owner, Maufacturer, Bus, Motor, and Mission.

OBJECT AH, 63241 is a satellite in SSO that was launched on Sat, 15 Mar 2025 UTC via an FALCON 9 launch vehicle from the Air Force Western Test Range (AFWTR). Unknown objects in Earth's orbit typically refer to objects detected orbiting the Earth but have not yet been identified or cataloged. These objects could be anything from previously untracked satellites, spent rocket stages, debris from satellite collisions, or even natural meteoroids temporarily captured by Earth's gravity.

Loading next visibility...
Identifier
63241, 2025-052AH
Orbit
SSO
Country
Flag of TBDTBD
Related business
None
Manufacturer
Unknown
Mission
Operational Commercial Technology
Bus & Motor
Unknown
Mass
Unknown
Launch date (UTC)
2025-03-15 (7 months ago)
Launch vehicle
FALCON 9
Launch site
Air Force Western Test Range (AFWTR)
Object type
Unknown
Shape & HBR
Box, 0.2 m
Radar Cross Section
0.054 m², Small (<0.1 m²)

Expand to show TLE details & history
Last TLE update: 1 day ago

TLE from 1 day ago
0 OBJECT AH
1 63241U 25052AH  25300.25009081  .00013090  00000-0  58632-3 0  9995
2 63241  97.4066 191.5204 0005520 259.7809 100.2804 15.21367169 34445
Epoch: 2025-10-27T06:00Z
TLE epoch observation values (Epoch: 2025-10-27T06:00:07.845Z)
Latitude
-0.0001°
Longitude
65.63309°
Altitude
505.488 km
Speed
7.611 km/s
True Right ascension
12h 46m 04s
True Declination
0° 00' 00"
Sunlit
Object was in daylight at epoch
Visualization orbit readout
Latitude
Unknown
Longitude
Unknown
Altitude
Unknown
Speed
Unknown
Apparent Right ascension
Unknown
Apparent Declination
Unknown
Sunlit
N/A
Visualization observer readout
Local Sidereal Time
02:58:38
Azimuth
Unknown
Elevation
Unknown
Doppler factor
Unknown
Orbital elements
Apogee altitude
502.476 km
Perigee altitude
494.884 km
Semi-major axis
6,876.817 km
Eccentricity
0.00055
Inclination
97.4066°
RAAN
191.5204°
Arg. of periapsis
259.7809°
True anomaly
100.34263°
Mean anomaly
100.2804°
Eccentric anomaly
100.31152°
Mean motion
3.80594 °/min
Orbital period
94.59 mins
BSTAR
0.00058632
Loading maneuver chart data...
Computing Atmospheric mass density...
Loading historical data...
Loading historical data...
Loading historical data...
Loading historical data...
Loading historical data...
Loading historical data...
Loading historical data...

Documentation

Showing up to 5 results
|